Flag for Germany Weather past 2 weeks in Wittlich, Rhineland-Palatinate, Germany

Now
60 °F

Passing clouds.


Feels Like: 59 °F
Forecast: 56 / 76 °F
Wind: 7 mph from Northeast

Location: Spangdahlem

Current Time: Jul 25, 2014 at 4:41:42 AM

Latest Report: Jul 25, 2014 at 3:58 AM


Visibility: N/A

Pressure: 29.88 "Hg

Humidity: 84%

Dew point: 55 °F

Location of WittlichLocation

Historic Weather in Wittlich — Graph

°F

Wittlich temperature yesterday

Maximum temperature yesterday: 77 °F (at 12:58 PM)
Minimum temperature yesterday: 62 °F (at 11:58 PM)
Average temperature yesterday: 69 °F

Past Weeks' High & Low Weather Summary

 TemperatureHumidityPressure
High88 °F (Jul 19, 2:58 PM)100% (Jul 10, 3:58 AM)30.22 "Hg (Jul 10, 3:58 AM)
Low54 °F (Jul 11, 4:58 AM)33% (Jul 18, 3:58 PM)29.59 "Hg (Jul 16, 2:58 PM)
Average68 °F72%29.93 "Hg
* Reported Jul 10 2:58 AM — Jul 25 2:58 AM, Wittlich, Weather by CustomWeather, © 2014

Note: Actual official high and low records may vary slightly from our data, if they occured in-between our weather recording intervals... More about our weather records

Advertising

Wittlich weather history for previous 24 hours

 ConditionsComfort  
Time TempWeatherWind HumidityBarometerVisibility
2:58 AM
Jul 25
60 °FClear.8 mph82%29.90 "HgN/A
1:58 AM61 °FPassing clouds.7 mph77%29.91 "HgN/A
12:58 AM61 °FMostly cloudy.6 mph77%29.92 "HgN/A
11:58 PM
Jul 24
62 °FOvercast.8 mph75%29.92 "HgN/A
10:58 PM63 °FPassing clouds.10 mph73%29.90 "HgN/A
9:58 PM65 °FPartly sunny.8 mph69%29.92 "HgN/A
8:58 PM66 °FOvercast.6 mph61%29.90 "HgN/A
7:58 PM69 °FScattered clouds.5 mph54%29.90 "HgN/A
6:58 PM67 °FScattered clouds.8 mph55%29.89 "HgN/A
5:58 PM69 °FSunny.15 mph58%29.90 "HgN/A
4:58 PM76 °FSunny.15 mph45%29.87 "HgN/A
3:59 PM77 °FSunny.5 mph44%29.94 "HgN/A
2:58 PM75 °FSunny.5 mph47%29.88 "HgN/A
1:59 PM73 °FLight rain. Scattered clouds.8 mph53%29.97 "HgN/A
12:58 PM77 °FPassing clouds.8 mph44%29.89 "HgN/A
11:58 AM76 °FSunny.7 mph53%29.90 "HgN/A
10:58 AM72 °FSunny.7 mph61%29.91 "HgN/A
9:58 AM71 °FSunny.12 mph61%29.91 "HgN/A
8:58 AM69 °FPassing clouds.8 mph64%29.91 "HgN/A
7:58 AM66 °FSunny.7 mph68%29.91 "HgN/A
6:58 AM64 °FSunny.3 mph71%29.90 "HgN/A
5:58 AM63 °FClear.No wind75%29.89 "HgN/A
4:58 AM63 °FClear.5 mph75%29.90 "HgN/A
Weather by CustomWeather, © 2014

See weather overviewHow to use our weather pages